Location: Unspecified
(0.0000°N, 0.0000°E)
Time: 18:00:25
(UTC+00:00)

SR - Visible Passes

Search period start: 18 January 2020 00:00
Search period end: 28 January 2020 00:00
Orbit: 574 x 882 km, 66.7° (Epoch: 17 January)

Date Brightness Start Highest point End Pass type
(mag) Time Alt. Az. Time Alt. Az. Time Alt. Az.
23 Jan ? 20:24:05 10° S 20:24:32 12° SSE 20:24:32 12° SSE visible
24 Jan ? 21:15:50 10° SW 21:16:16 12° SW 21:16:16 12° SW visible
25 Jan ? 20:26:01 10° SSW 20:28:40 31° S 20:28:40 31° S visible
26 Jan ? 19:37:13 10° SSE 19:41:09 28° ESE 19:41:09 28° ESE visible
26 Jan ? 21:19:43 10° WSW 21:20:37 13° WSW 21:20:37 13° WSW visible
27 Jan ? 18:50:41 10° SE 18:52:13 11° ESE 18:53:46 10° E visible
27 Jan ? 20:28:47 10° SW 20:33:14 46° W 20:33:14 46° W visible
